Lid_Strength_Index
12 13 14 13 12 14 14 14 14 14 15 15 14 13 12 10 10 10 10 10 10 10 9 8 8 8 8 7 8 8 8 8 8 7 7 7 7 6 6 5 5 5 5 5
13 14 13 14 14 15 14 15 14 14 15 15 13 14 11 10 10 10 9 10 9 9 9 9 9 8 8 8 8 8 8 8 8 7 7 7 7 7 6 6 5 5 6 6
13 14 14 15 15 15 15 15 14 15 14 14 15 13 12 10 11 11 10 10 9 9 9 9 9 9 8 8 8 8 8 8 8 8 7 7 7 6 7 6 6 6 6 6
13 14 15 15 15 15 16 15 16 16 15 16 15 16 12 10 11 12 11 11 11 10 10 9 9 9 9 8 7 7 8 8 8 8 8 8 8 8 7 7 7 6 6 7
15 16 16 16 16 15 16 15 16 16 16 16 16 17 13 12 12 11 11 10 10 10 10 10 9 8 8 7 7 7 8 8 8 8 8 8 8 7 7 7 7 7 7 7
15 14 15 15 16 16 15 16 16 16 16 18 15 16 14 12 12 12 12 11 10 10 10 10 9 8 8 7 7 7 8 8 8 8 8 8 8 8 8 8 8 8 8 8
16 16 16 16 17 16 17 17 16 18 18 17 18 18 14 11 12 11 11 11 11 10 10 10 9 9 8 8 8 8 8 9 8 8 8 8 8 8 9 9 9 9 9 9
15 16 16 16 16 17 17 16 16 20 18 17 19 19 14 11 11 11 11 10 10 11 10 9 9 9 9 9 8 8 8 9 9 9 8 8 8 8 9 9 9 9 10 10
15 16 17 17 16 16 17 18 16 17 21 19 15 14 11 10 11 11 11 11 11 10 9 9 9 9 9 8 8 8 9 8 9 9 8 8 8 9 9 9 9 10 9 10
13 16 18 17 16 16 16 15 17 16 18 19 16 16 14 11 11 11 11 10 9 9 9 9 9 9 9 9 9 8 9 9 9 9 9 9 9 9 9 9 10 10 10 10
13 12 18 18 18 17 18 17 17 16 16 17 17 15 10 10 10 10 10 9 9 9 9 9 9 9 9 9 9 9 10 10 10 9 9 9 9 9 10 10 10 10 10 10
13 14 16 16 17 16 17 15 15 15 16 17 17 16 9 10 10 10 9 9 9 9 9 9 8 8 9 9 9 10 10 10 10 9 9 9 9 9 10 10 10 10 10 10
14 13 16 17 18 18 18 17 15 15 16 16 16 15 12 11 11 10 10 9 9 9 9 9 9 9 9 9 9 9 10 10 10 9 10 10 10 10 10 10 11 11 10 10
13 13 14 15 16 15 19 18 17 16 16 16 16 14 11 10 10 10 10 9 9 9 9 9 9 9 9 9 9 10 10 10 10 10 10 10 10 10 10 10 11 11 10 10
14 17 16 16 15 16 15 17 18 19 17 17 15 14 12 10 9 8 8 8 9 10 10 10 9 9 9 10 10 10 10 10 10 10 10 10 10 11 11 11 11 11 11 10
16 16 18 19 17 17 18 17 17 17 17 16 15 15 10 9 9 9 9 9 10 9 9 9 9 10 10 10 10 11 11 10 10 11 10 10 11 11 11 11 11 11 11 11
17 16 18 19 17 18 20 19 17 16 15 15 17 14 10 11 10 10 10 10 10 9 10 9 9 10 10 10 10 11 10 10 11 11 10 11 11 11 11 12 12 12 12 11
16 16 15 18 19 22 15 11 13 15 14 14 14 12 10 10 9 8 8 9 10 9 9 9 9 10 10 10 10 10 10 11 11 11 11 11 12 13 12 13 13 13 13 12
13 15 16 18 18 15 14 13 15 16 15 12 13 12 12 11 10 11 9 9 9 9 9 9 9 9 10 10 10 11 11 11 11 12 12 12 12 13 13 13 13 14 14 13
12 13 15 16 18 20 14 10 11 13 17 10 10 12 11 11 14 11 7 8 9 9 9 10 10 10 11 11 11 12 12 12 13 13 12 13 13 13 13 13 13 14 14 13
15 15 17 16 17 14 11 12 11 17 15 10 9 9 10 11 10 8 9 10 10 10 10 10 10 11 11 12 12 12 12 13 12 13 13 14 14 13 13 13 13 14 14 13
14 16 16 16 17 19 9 13 14 10 9 9 9 9 9 9 9 10 10 10 10 10 11 11 11 12 12 12 13 13 13 12 13 13 14 14 14 13 13 13 13 13 14 14
13 11 12 13 12 9 9 9 9 9 9 8 8 7 8 9 10 10 10 10 11 10 11 11 11 12 13 13 13 13 12 13 13 14 14 15 14 13 13 13 13 14 13 14
13 11 14 11 9 9 8 7 7 6 8 7 7 8 9 9 9 11 10 10 11 11 12 12 13 13 13 13 13 12 12 13 14 14 14 15 14 14 13 13 13 14 13 13
14 13 13 12 13 13 10 12 13 13 10 11 10 10 9 9 9 10 11 10 10 11 11 12 12 12 12 12 13 13 13 13 13 13 13 14 14 14 13 13 13 13 13 13
14 17 17 17 17 18 16 15 16 16 16 16 16 14 11 9 9 9 10 10 11 10 11 13 13 12 12 12 12 12 12 13 13 13 13 13 14 13 13 13 13 12 12 13